KF0FSA Weather Reports


time (UTC)temp
F
wind
direction
speed
knots
gust
knots
rain 1hr
in
rain 24hr
in
rain mn
in
humidity
%
barometer
mb
20260504185729 61 312 8.7 15.6 0.00 0.00 0.00 34 952.4
20260504180011 64 311 7.8 14.8 0.00 0.00 0.00 34 951.4
20260504173010 64 304 7.0 14.8 0.00 0.00 0.00 32 951.1
20260504172716 64 308 7.0 14.8 0.00 0.00 0.00 32 951.1
20260504172009 63 327 6.1 11.3 0.00 0.00 0.00 34 951.1
20260504171509 63 5 7.0 12.2 0.00 0.00 0.00 33 951.1
20260504171009 63 287 7.0 12.2 0.00 0.00 0.00 33 951.2
20260504160156 63 29 5.2 11.3 0.00 0.00 0.00 37 950.2
20260504150645 62 31 5.2 9.6 0.00 0.00 0.00 39 949.8
20260504140130 60 353 4.3 9.6 0.00 0.00 0.00 52 949.1
20260504130422 56 303 4.3 8.7 0.00 0.00 0.00 61 948.5
20260504110559 51 326 1.7 5.2 0.00 0.00 0.00 62 947.3
20260504081029 54 177 2.6 7.0 0.00 0.00 0.00 48 948.8
20260504045924 55 264 0.9 2.6 0.00 0.00 0.00 46 951.5
20260504045422 55 0 0.9 3.5 0.00 0.00 0.00 45 951.5
20260504044420 55 237 0.0 1.7 0.00 0.00 0.00 46 951.6
20260504042910 56 0 0.9 2.6 0.00 0.00 0.00 45 951.8
20260504033407 57 257 0.0 1.7 0.00 0.00 0.00 44 952.5
20260504030408 57 307 0.9 2.6 0.00 0.00 0.00 44 953.0
20260504025355 58 0 0.0 3.5 0.00 0.00 0.00 44 953.2
20260504023353 59 0 0.0 3.5 0.00 0.00 0.00 42 953.2
20260504021348 60 0 0.0 1.7 0.00 0.00 0.00 41 953.3
20260504011839 66 0 0.9 2.6 0.00 0.00 0.00 37 953.4
20260503235331 72 271 2.6 7.8 0.00 0.00 0.00 30 953.8
20260503233825 72 109 2.6 7.8 0.00 0.00 0.00 28 953.9
20260503223825 73 284 2.6 7.8 0.00 0.00 0.00 29 954.4
20260503223323 73 237 2.6 7.8 0.00 0.00 0.00 28 954.5
20260503221820 73 170 3.5 8.7 0.00 0.00 0.00 28 954.5
20260503201304 72 316 4.3 7.8 0.00 0.00 0.00 31 956.1
20260503200111 71 343 4.3 7.8 0.00 0.00 0.00 33 956.3
20260503192013 70 303 5.2 9.6 0.00 0.00 0.00 33 956.7
20260503191037 70 309 6.1 12.2 0.00 0.00 0.00 33 956.7
20260503190536 71 340 5.2 12.2 0.00 0.00 0.00 33 956.7